Current Version              Previous Version:    01  02  03  04  05  06  07  08  09  10  11  12  13  14  15  16  17  18  19  20  21  22  23  24  25  26  27  28  29  30  
   31  32  33  34  35  36  37  38  39  40  41  42  43  44  45  46  47  48  49  50  51  52  53  54  55  56  57  58  59  60  

[Printable]
339
ASUS44 KEWX 232302
RWRTX
SOUTH TEXAS REGIONAL WEATHER ROUNDUP
NATIONAL WEATHER SERVICE AUSTIN/SAN ANTONIO TX
500 PM CST SUN NOV 23 2014

NOTE: "FAIR" INDICATED FEW OR NO CLOUDS BELOW 12,000 FEET WITH NO
SIGNIFICANT WEATHER AND/OR OBSTRUCTIONS TO VISIBILITY.

* - THESE STATIONS ARE NOT NWS OR FAA STATIONS...AND ARE NOT SUBJECT
    TO NWS AND FAA QUALITY CONTROL.

TXZ171-172-183>190-240000-
TEXAS HILL COUNTRY AND EDWARDS PLATEAU

CITY           SKY/WX    TMP DP  RH WIND       PRES   REMARKS
JUNCTION       CLEAR     76  30  18 NW12      29.62R
*LLANO         CLEAR     77  36  22 W9        29.59R
BURNET         CLEAR     74  34  23 W12       29.58R
*HORSESHOE BAY CLEAR     76  36  23 W5        29.57R
*KERRVILLE     CLEAR     76  32  20 W13G18    29.62R
*FREDERICKSBRG CLEAR     75  32  20 W15G21    29.60R
*ROCKSPRINGS   CLEAR     75  32  20 MISG      29.66S
*BOERNE STAGE  CLEAR     77  36  22 W8        29.62R
*CASTROVILLE   CLEAR     80  38  22 W10       29.61R
HONDO          CLEAR     75  38  26 W14       29.62R
*UVALDE        CLEAR     81  36  20 W13       29.62R
DEL RIO        CLEAR     80  38  22 W15       29.61R
LAUGHLIN AFB   CLEAR     79  47  32 W12       29.62R
CARRIZO SPRGS  CLEAR     81  43  26 NW3       29.60S
$$

TXZ173-191>194-202-209-217>225-228-240000-
CENTRAL AND SOUTH CENTRAL TEXAS

CITY           SKY/WX    TMP DP  RH WIND       PRES   REMARKS
GEORGETOWN     NOT AVBL
AUSTIN/BERGSTM PTCLDY    79  41  25 W9        29.54R
AUSTIN/MABRY   CLEAR     76  42  29 SW5       29.55R
*AUSTIN/EXEC   CLEAR     77  41  27 W8        29.55R
*LAGO VISTA    CLEAR     77  37  23 W8        29.56S
SAN MARCOS     CLEAR     75  43  31 SW10      29.57R
NEW BRAUNFELS  CLEAR     80  43  26 W12       29.56R
RANDOLPH AFB   CLEAR     78  43  28 W6        29.59R
PT SAN ANTONIO CLEAR     79  41  25 W10       29.58R
SAN ANTONIO    PTCLDY    79  41  25 W9        29.59R
STINSON FIELD  CLEAR     78  46  32 SW8       29.58R
*PLEASANTON    CLEAR     80  42  25 W9G17     29.61R
*LA GRANGE     CLEAR     79  48  33 SW7       29.54S
*GIDDINGS      CLEAR     76  46  33 SW7       29.58R
*GONZALES      CLEAR     80  45  29 W12       29.56S
$$

TXZ163>164-176>182-195>201-210>213-226-227-235-240000-
SOUTHEAST TEXAS

CITY           SKY/WX    TMP DP  RH WIND       PRES   REMARKS
COLLEGE STN    CLEAR     75  47  36 SW9       29.52R
*BRYAN         CLEAR     77  47  35 SW6       29.53R
*CALDWELL      CLEAR     75  46  35 SW10      29.55R
*CROCKETT      CLEAR     77  54  44 SW8       29.52R
*BRENHAM       CLEAR     78  46  32 SW9G16    29.55R
HUNTSVILLE     CLEAR     75  49  39 SW9       29.52R
CONROE         CLEAR     75  47  36 SW8       29.53R
HOUSTON BUSH   CLEAR     77  50  38 SW9       29.54S
HOUSTON HOBBY  PTCLDY    76  53  44 SW16      29.56R
*HOUSTON SW AP CLEAR     70  49  47 S7G16     29.57S
PEARLAND       CLEAR     77  53  43 SW8       29.58R
HOUSTON HOOKS  CLEAR     77  47  34 SW10      29.53S
ELLINGTON FLD  CLEAR     77  52  41 SW12      29.57R
SUGAR LAND     CLEAR     76  54  46 SW10      29.56R
*HOUSTON EXEC  CLEAR     77 N/A N/A SW12      29.57R
*CLEVELAND MUN NOT AVBL
*WHARTON       CLEAR     77  55  45 S10       29.58S
*COLUMBUS      FAIR      78  49  36 SW6       29.56R
$$

TXZ214>216-236>238-240000-
THE UPPER TEXAS COAST

CITY           SKY/WX    TMP DP  RH WIND       PRES   REMARKS
*ORANGE        CLEAR     67  62  84 S13G18    29.58R
PORT ARTHUR    CLEAR     68  60  75 S10       29.56R
GALVESTON      CLEAR     67  61  81 SW16      29.59R
ANGLETON       CLEAR     71  59  65 S8        29.59R
*BAY CITY        N/A     73  62  68 S8        29.60R
PALACIOS       CLEAR     68  61  78 S12       29.60R
$$

TXZ229>234-239>247-240000-
TEXAS COASTAL BEND AND RIO GRANDE PLAINS

CITY           SKY/WX    TMP DP  RH WIND       PRES   REMARKS
VICTORIA       CLEAR     81  49  32 SW8       29.59R
*BEEVILLE      CLEAR     80  47  30 SW6       29.60R
ROCKPORT       CLEAR     75  60  59 S6        29.60R
*PORT ARANSAS  CLEAR     69  63  79 S13       29.60S
*PORT LAVACA   CLEAR     72  64  74 S10       29.60R
*INGLESIDE     CLEAR     79  61  53 S9        29.60R
CORPUS CHRISTI PTCLDY    78  63  59 SW7       29.60R
CORPUS NAS     CLEAR     73  63  70 S9        29.60R
*ROBSTOWN      CLEAR     81  55  39 SW7       29.60S
ALICE          CLEAR     82  46  28 SW7       29.61R
KINGSVILLE NAS CLEAR     80  55  42 SW8       29.61R
COTULLA        CLEAR     84  40  21 W5        29.60S
*FAITH RANCH   CLEAR     84  39  20 SW7       29.61S
LAREDO         CLEAR     82  47  29 S8        29.64S
$$

TXZ248>255-240000-
DEEP SOUTH TEXAS

CITY           SKY/WX    TMP DP  RH WIND       PRES   REMARKS
BROWNSVILLE    CLEAR     79  55  43 S7        29.65S
PORT ISABEL    CLEAR     78  55  44 S10       29.64R
*SOUTH PADRE   CLEAR    N/A N/A N/A S7        29.64S
HARLINGEN      CLEAR     78  61  55 S10       29.63R
*HEBBRONVILLE  CLEAR     82  44  26 SW7       29.64R
MCALLEN        CLEAR     82  58  43 S5        29.64R
*WESLACO       CLEAR     83  51  32 S6        29.63S
FALFURRIAS     CLEAR     83  49  29 S8        29.61R
EDINBURG       CLEAR     84  53  35 S6        29.63S
*ZAPATA        CLEAR     84  49  29 S5        29.61S
$$

TXZ213>215-236>238-242>244-246-247-251-254-255-240000-
CMAN STATIONS

STATION/POSITION TIME  TEMP    WIND        PRES    WAVE
                       AIR SEA DIR/SP/G            HT/PER
                 (UTC) (F)     (DEG/KT/KT) (MB)    (FT/S)
SABINE PASS      2200   67 60  220/ 13/ 21 1001.0
SEA RIM ST PARK  2200   65     210/ 13/ 16 1002.0
NORTH JETTY/GLS  2200   66 60  240/ 19/ 22   N/A
EAGLE POINT      2200   68 61  210/ 13/ 14 1001.2
MORGANS POINT    2200   79     220/  8/ 14 1000.6
MISSION/ARANSAS  2200          160/ 11     1003.0
PORT O`CONNOR    2200          200/ 12/ 14   N/A
PORT ARANSAS     2200   68 63  180/ 13/ 14 1003.0
MALAQUITE BEACH  2200   69 67  160/ 14/ 16 1001.9
BAFFIN BAY       2200   74 79  160/ 10/ 12 1002.6
PORT ISABEL      2200   79 67  160/  9/ 11 1003.7
$$

GMZ080-GMZ150>470-240000-
OFFSHORE BUOY REPORTS

STATION/POSITION TIME  TEMP    WIND        PRES    WAVE
                       AIR SEA DIR/SP/G            HT/PER
                 (UTC) (F)     (DEG/KT/KT) (MB)    (FT/S)
20 E GALVESTON   2300   65 62  200/ 14/ 16 1001.7    4/ 8
90 E PT ARANSAS  2300   74 73  200/ 14/ 17 1003.2    5/ 8
35 NE PT MANSFLD 2200   74 74  190/ 14/ 17 1003.2    6/ 8
200 E PT ISABEL  2200   75 75  180/ 12/ 14 1004.5    6/ 7
$$